Weather Roundup
Issued by NWS

Home | Current Version | Previous Version | Graphics & Text | Print | Product List | Glossary Off
Versions: 1 2 3 4 5 6 7 8 9 10 11 12 13 14 15 16 17 18 19 20 21 22 23 24 25 26 27 28 29 30 31 32 33 34 35 36 37 38 39 40 41 42 43 44 45 46 47 48 49 50

000
NZUS93 KARX 050159
HRRWXR

CURRENT HOURLY OBSERVATIONS ACROSS
MUCH OF THE UPPER MISSISSIPPI VALLEY
NATIONAL WEATHER SERVICE LA CROSSE WI
900 PM CDT TUE AUG 04 2015


...SOUTHEAST MINNESOTA...


CITY           SKY/WX    TMP DP  RH WIND       PRES   REMARKS
ROCHESTER      PTCLDY    65  56  72 SW5       30.04R
ROCHESTER/MAYO FAIR      72  52  49 SW5       30.02S
WINONA         CLEAR     70  61  73 CALM      30.00R
AUSTIN         MOCLDY    68  55  64 CALM      30.04R
ALBERT LEA     PTCLDY    64  57  77 CALM      30.04R
DODGE CENTER   PTCLDY    63  57  82 SW3       30.03R HAZE
PRESTON        PTCLDY    66  55  66 CALM      30.04S
OWATONNA       PTCLDY    64  55  72 SW6       30.03R
FARIBAULT      PTCLDY    68  57  68 CALM      30.02R
$$

...ELSEWHERE IN MINNESOTA...


CITY           SKY/WX    TMP DP  RH WIND       PRES   REMARKS
MINNEAPOLIS    PTCLDY    77  50  38 W7        29.99R
INTNL FALLS    CLEAR     56  51  84 NE3       30.04S
DULUTH         PTCLDY    59  49  69 E7        30.03R
RED WING       PTCLDY    70  61  73 CALM      29.98R
REDWOOD FALLS  CLEAR     72  57  59 CALM      30.01R
MANKATO        PTCLDY    72  54  53 S6        30.02R
WORTHINGTON    PTCLDY    68  57  68 SE3       30.03S
FAIRMONT       PTCLDY    68  55  64 E5        30.03S
$$

...SOUTHWEST WISCONSIN...


CITY           SKY/WX    TMP DP  RH WIND       PRES   REMARKS
LA CROSSE      CLEAR     71  55  56 SW5       30.00R
PRAIRIE DU CHI MOCLDY    68  58  69 CALM      30.02R
BOSCOBEL       PTCLDY    63  59  87 CALM      30.02R
LONE ROCK      NOT AVBL
PLATTEVILLE    PTCLDY    69  56  63 W3        30.03R
FORT MC COY    CLEAR     65  54  67 CALM      30.01R
VIROQUA        FAIR      65  57  75 CALM      30.03R
WIS DELLS      MOCLDY    71  51  50 CALM      30.00R
$$

...ELSEWHERE IN WISCONSIN...


CITY           SKY/WX    TMP DP  RH WIND       PRES   REMARKS
MILWAUKEE      PTCLDY    69  56  62 S7        30.00R
MADISON        MOCLDY    66  55  67 CALM      30.01R
GREEN BAY      CLEAR     65  56  72 N6        29.99R
EAU CLAIRE     NOT AVBL
BLACK RVR FLS  FAIR      63  54  74 CALM      30.00R
MEDFORD        CLEAR     59  56  89 CALM      30.01R
WAUSAU         PTCLDY    66  52  60 CALM      29.99R
WIS RAPIDS     PTCLDY    64  53  67 CALM      30.01R
MARSHFIELD     CLEAR     66  54  65 CALM      30.01R
RICE LAKE      CLEAR     68  56  66 CALM      30.01R
$$

...NORTHEAST IOWA...


CITY           SKY/WX    TMP DP  RH WIND       PRES   REMARKS
DECORAH        MOCLDY    68  57  68 CALM      30.02R
MASON CITY     MOCLDY    67  58  72 S3        30.06R
CHARLES CITY   MOCLDY    64  63  94 SW3       30.05R
OELWEIN        MOCLDY    66  63  88 CALM      30.04
$$

...ELSEWHERE IN IOWA...


CITY           SKY/WX    TMP DP  RH WIND       PRES   REMARKS
DES MOINES     CLOUDY    75  62  64 SE7       30.00R
IOWA CITY      PTCLDY    72  65  78 CALM      30.03R
FORT DODGE     PTCLDY    70  61  73 E8        30.03R
$$

...NORTHERN ILLINOIS...


CITY           SKY/WX    TMP DP  RH WIND       PRES   REMARKS
CHICAGO-OHARE  MOCLDY    74  53  48 N3        30.01R
CHICAGO-MIDWAY MOCLDY    76  59  55 E10       30.01R
MOLINE         MOCLDY    72  63  73 CALM      30.01R
ROCKFORD       MOCLDY    68  58  70 CALM      30.03R
PEORIA         MOCLDY    74  63  68 CALM      30.02R
$$

NOTE: "FAIR" INDICATES FEW OR NO CLOUDS BELOW 12,000 FEET WITH NO
SIGNIFICANT WEATHER AND/OR OBSTRUCTIONS TO VISIBILITY. WIND
SPEEDS ARE IN MILES-PER-HOUR.



USA.gov is the U.S. government's official web portal to all federal, state and local government web resources and services.